Year,Month,Day,Hour,Minute,Value (Times are PST for temperature in C)
2014,05,26,00,00,10.20
2014,05,26,00,01,10.20
2014,05,26,00,02,10.20
2014,05,26,00,03,10.20
2014,05,26,00,04,10.10
2014,05,26,00,05,10.10
2014,05,26,00,06,10.10
2014,05,26,00,07,10.10
2014,05,26,00,08,10.10
2014,05,26,00,09,10.10
2014,05,26,00,10,10.10
2014,05,26,00,11,10.10
2014,05,26,00,12,10.10
2014,05,26,00,13,10.10
2014,05,26,00,14,10.10
2014,05,26,00,15,10.10
2014,05,26,00,16,10.10
2014,05,26,00,17,10.10
2014,05,26,00,18,10.20
2014,05,26,00,19,10.20
2014,05,26,00,20,10.20
2014,05,26,00,21,10.20
2014,05,26,00,22,10.20
2014,05,26,00,23,10.20
2014,05,26,00,24,10.20
2014,05,26,00,25,10.20
2014,05,26,00,26,10.20
2014,05,26,00,27,10.20
2014,05,26,00,28,10.20
2014,05,26,00,29,10.20
2014,05,26,00,30,10.20
2014,05,26,00,31,10.20
2014,05,26,00,32,10.20
2014,05,26,00,33,10.10
2014,05,26,00,34,10.10
2014,05,26,00,35,10.10
2014,05,26,00,36,10.10
2014,05,26,00,37,10.10
2014,05,26,00,38,10.10
2014,05,26,00,39,10.10
2014,05,26,00,40,10.10
2014,05,26,00,41,10.10
2014,05,26,00,42,10.10
2014,05,26,00,43,10.10
2014,05,26,00,44,10.10
2014,05,26,00,45,10.10
2014,05,26,00,46,10.10
2014,05,26,00,47,10.10
2014,05,26,00,48,10.10
2014,05,26,00,49,10.10
2014,05,26,00,50,10.10
2014,05,26,00,51,10.10
2014,05,26,00,52,10.00
2014,05,26,00,53,10.00
2014,05,26,00,54,10.00
2014,05,26,00,55,10.00
2014,05,26,00,56,10.00
2014,05,26,00,57,10.00
2014,05,26,00,58,9.90
2014,05,26,00,59,9.90
2014,05,26,01,00,9.90
2014,05,26,01,01,9.90
2014,05,26,01,02,9.90
2014,05,26,01,03,9.90
2014,05,26,01,04,9.90
2014,05,26,01,05,9.90
2014,05,26,01,06,9.90
2014,05,26,01,07,9.90
2014,05,26,01,08,9.90
2014,05,26,01,09,9.90
2014,05,26,01,10,9.90
2014,05,26,01,11,9.90
2014,05,26,01,12,9.80
2014,05,26,01,13,9.80
2014,05,26,01,14,9.80
2014,05,26,01,15,9.80
2014,05,26,01,16,9.80
2014,05,26,01,17,9.80
2014,05,26,01,18,9.80
2014,05,26,01,19,9.80
2014,05,26,01,20,9.80
2014,05,26,01,21,9.80
2014,05,26,01,22,9.80
2014,05,26,01,23,9.80
2014,05,26,01,24,9.80
2014,05,26,01,25,9.80
2014,05,26,01,26,9.80
2014,05,26,01,27,9.80
2014,05,26,01,28,9.80
2014,05,26,01,29,9.80
2014,05,26,01,30,9.80
2014,05,26,01,31,9.80
2014,05,26,01,32,9.80
2014,05,26,01,33,9.80
2014,05,26,01,34,9.80
2014,05,26,01,35,9.80
2014,05,26,01,36,9.80
2014,05,26,01,37,9.80
2014,05,26,01,38,9.80
2014,05,26,01,39,9.80
2014,05,26,01,40,9.80
2014,05,26,01,41,9.80
2014,05,26,01,42,9.80
2014,05,26,01,43,9.80
2014,05,26,01,44,9.80
2014,05,26,01,45,9.80
2014,05,26,01,46,9.80
2014,05,26,01,47,9.80
2014,05,26,01,48,9.80
2014,05,26,01,49,9.80
2014,05,26,01,50,9.80
2014,05,26,01,51,9.80
2014,05,26,01,52,9.80
2014,05,26,01,53,9.80
2014,05,26,01,54,9.80
2014,05,26,01,55,9.80
2014,05,26,01,56,9.80
2014,05,26,01,57,9.80
2014,05,26,01,58,9.80
2014,05,26,01,59,9.80
2014,05,26,02,00,9.80
2014,05,26,02,01,9.80
2014,05,26,02,02,9.80
2014,05,26,02,03,9.80
2014,05,26,02,04,9.80
2014,05,26,02,05,9.80
2014,05,26,02,06,9.80
2014,05,26,02,07,9.80
2014,05,26,02,08,9.80
2014,05,26,02,09,9.80
2014,05,26,02,10,9.80
2014,05,26,02,11,9.80
2014,05,26,02,12,9.80
2014,05,26,02,13,9.80
2014,05,26,02,14,9.90
2014,05,26,02,15,9.90
2014,05,26,02,16,9.90
2014,05,26,02,17,9.90
2014,05,26,02,18,9.90
2014,05,26,02,19,9.90
2014,05,26,02,20,9.90
2014,05,26,02,21,9.90
2014,05,26,02,22,9.90
2014,05,26,02,23,9.90
2014,05,26,02,24,9.90
2014,05,26,02,25,9.90
2014,05,26,02,26,9.90
2014,05,26,02,27,9.90
2014,05,26,02,28,9.90
2014,05,26,02,29,9.90
2014,05,26,02,30,9.90
2014,05,26,02,31,9.90
2014,05,26,02,32,9.90
2014,05,26,02,33,9.90
2014,05,26,02,34,9.90
2014,05,26,02,35,9.80
2014,05,26,02,36,9.80
2014,05,26,02,37,9.90
2014,05,26,02,38,9.90
2014,05,26,02,39,9.90
2014,05,26,02,40,9.90
2014,05,26,02,41,9.90
2014,05,26,02,42,9.90
2014,05,26,02,43,9.90
2014,05,26,02,44,9.90
2014,05,26,02,45,9.90
2014,05,26,02,46,9.90
2014,05,26,02,47,9.90
2014,05,26,02,48,9.90
2014,05,26,02,49,9.90
2014,05,26,02,50,9.90
2014,05,26,02,51,9.90
2014,05,26,02,52,9.90
2014,05,26,02,53,9.90
2014,05,26,02,54,9.90
2014,05,26,02,55,9.90
2014,05,26,02,56,9.90
2014,05,26,02,57,9.90
2014,05,26,02,58,9.90
2014,05,26,02,59,9.90
2014,05,26,03,00,9.90
2014,05,26,03,01,9.90
2014,05,26,03,02,9.90
2014,05,26,03,03,9.90
2014,05,26,03,04,9.90
2014,05,26,03,05,10.00
2014,05,26,03,06,10.00
2014,05,26,03,07,10.00
2014,05,26,03,08,10.00
2014,05,26,03,09,10.10
2014,05,26,03,10,10.10
2014,05,26,03,11,10.10
2014,05,26,03,12,10.10
2014,05,26,03,13,10.10
2014,05,26,03,14,10.10
2014,05,26,03,15,10.10
2014,05,26,03,16,10.10
2014,05,26,03,17,10.10
2014,05,26,03,18,10.10
2014,05,26,03,19,10.10
2014,05,26,03,20,10.10
2014,05,26,03,21,10.10
2014,05,26,03,22,10.10
2014,05,26,03,23,10.10
2014,05,26,03,24,10.10
2014,05,26,03,25,10.10
2014,05,26,03,26,10.10
2014,05,26,03,27,10.10
2014,05,26,03,28,10.10
2014,05,26,03,29,10.10
2014,05,26,03,30,10.00
2014,05,26,03,31,10.00
2014,05,26,03,32,10.00
2014,05,26,03,33,10.00
2014,05,26,03,34,10.00
2014,05,26,03,35,10.00
2014,05,26,03,36,10.00
2014,05,26,03,37,10.00
2014,05,26,03,38,10.00
2014,05,26,03,39,10.00
2014,05,26,03,40,10.00
2014,05,26,03,41,10.00
2014,05,26,03,42,10.00
2014,05,26,03,43,10.00
2014,05,26,03,44,10.00
2014,05,26,03,45,10.00
2014,05,26,03,46,10.00
2014,05,26,03,47,10.00
2014,05,26,03,48,10.00
2014,05,26,03,49,10.00
2014,05,26,03,50,10.00
2014,05,26,03,51,10.00
2014,05,26,03,52,10.00
2014,05,26,03,53,10.00
2014,05,26,03,54,10.00
2014,05,26,03,55,10.00
2014,05,26,03,56,10.00
2014,05,26,03,57,10.00
2014,05,26,03,58,10.00
2014,05,26,03,59,10.00
2014,05,26,04,00,10.00
2014,05,26,04,01,10.10
2014,05,26,04,02,10.10
2014,05,26,04,03,10.10
2014,05,26,04,04,10.10
2014,05,26,04,05,10.10
2014,05,26,04,06,10.10
2014,05,26,04,07,10.10
2014,05,26,04,08,10.10
2014,05,26,04,09,10.10
2014,05,26,04,10,10.10
2014,05,26,04,11,10.10
2014,05,26,04,12,10.10
2014,05,26,04,13,10.20
2014,05,26,04,14,10.20
2014,05,26,04,15,10.20
2014,05,26,04,16,10.20
2014,05,26,04,17,10.20
2014,05,26,04,18,10.20
2014,05,26,04,19,10.20
2014,05,26,04,20,10.20
2014,05,26,04,21,10.20
2014,05,26,04,22,10.20
2014,05,26,04,23,10.10
2014,05,26,04,24,10.20
2014,05,26,04,25,10.10
2014,05,26,04,26,10.10
2014,05,26,04,27,10.10
2014,05,26,04,28,10.10
2014,05,26,04,29,10.10
2014,05,26,04,30,10.10
2014,05,26,04,31,10.10
2014,05,26,04,32,10.10
2014,05,26,04,33,10.10
2014,05,26,04,34,10.10
2014,05,26,04,35,10.10
2014,05,26,04,36,10.10
2014,05,26,04,37,10.10
2014,05,26,04,38,10.10
2014,05,26,04,39,10.10
2014,05,26,04,40,10.10
2014,05,26,04,41,10.10
2014,05,26,04,42,10.10
2014,05,26,04,43,10.10
2014,05,26,04,44,10.10
2014,05,26,04,45,10.10
2014,05,26,04,46,10.10
2014,05,26,04,47,10.10
2014,05,26,04,48,10.10
2014,05,26,04,49,10.10
2014,05,26,04,50,10.10
2014,05,26,04,51,10.10
2014,05,26,04,52,10.10
2014,05,26,04,53,10.10
2014,05,26,04,54,10.10
2014,05,26,04,55,10.10
2014,05,26,04,56,10.10
2014,05,26,04,57,10.10
2014,05,26,04,58,10.10
2014,05,26,04,59,10.10
2014,05,26,05,00,10.10
2014,05,26,05,01,10.10
2014,05,26,05,02,10.20
2014,05,26,05,03,10.20
2014,05,26,05,04,10.20
2014,05,26,05,05,10.30
2014,05,26,05,06,10.30
2014,05,26,05,07,10.30
2014,05,26,05,08,10.30
2014,05,26,05,09,10.30
2014,05,26,05,10,10.30
2014,05,26,05,11,10.30
2014,05,26,05,12,10.30
2014,05,26,05,13,10.30
2014,05,26,05,14,10.20
2014,05,26,05,15,10.20
2014,05,26,05,16,10.20
2014,05,26,05,17,10.20
2014,05,26,05,18,10.20
2014,05,26,05,19,10.20
2014,05,26,05,20,10.20
2014,05,26,05,21,10.20
2014,05,26,05,22,10.20
2014,05,26,05,23,10.20
2014,05,26,05,24,10.20
2014,05,26,05,25,10.20
2014,05,26,05,26,10.20
2014,05,26,05,27,10.20
2014,05,26,05,28,10.20
2014,05,26,05,29,10.20
2014,05,26,05,30,10.20
2014,05,26,05,31,10.20
2014,05,26,05,32,10.20
2014,05,26,05,33,10.20
2014,05,26,05,34,10.20
2014,05,26,05,35,10.20
2014,05,26,05,36,10.20
2014,05,26,05,37,10.20
2014,05,26,05,38,10.20
2014,05,26,05,39,10.20
2014,05,26,05,40,10.20
2014,05,26,05,41,10.20
2014,05,26,05,42,10.20
2014,05,26,05,43,10.20
2014,05,26,05,44,10.20
2014,05,26,05,45,10.20
2014,05,26,05,46,10.20
2014,05,26,05,47,10.20
2014,05,26,05,48,10.20
2014,05,26,05,49,10.20
2014,05,26,05,50,10.20
2014,05,26,05,51,10.20
2014,05,26,05,52,10.20
2014,05,26,05,53,10.20
2014,05,26,05,54,10.20
2014,05,26,05,55,10.20
2014,05,26,05,56,10.20
2014,05,26,05,57,10.20
2014,05,26,05,58,10.20
2014,05,26,05,59,10.20
2014,05,26,06,00,10.20
2014,05,26,06,01,10.20
2014,05,26,06,02,10.20
2014,05,26,06,03,10.20
2014,05,26,06,04,10.20
2014,05,26,06,05,10.20
2014,05,26,06,06,10.20
2014,05,26,06,07,10.20
2014,05,26,06,08,10.20
2014,05,26,06,09,10.20
2014,05,26,06,10,10.20
2014,05,26,06,11,10.20
2014,05,26,06,12,10.20
2014,05,26,06,13,10.20
2014,05,26,06,14,10.20
2014,05,26,06,15,10.20
2014,05,26,06,16,10.20
2014,05,26,06,17,10.20
2014,05,26,06,18,10.20
2014,05,26,06,19,10.20
2014,05,26,06,20,10.20
2014,05,26,06,21,10.20
2014,05,26,06,22,10.20
2014,05,26,06,23,10.20
2014,05,26,06,24,10.20
2014,05,26,06,25,10.20
2014,05,26,06,26,10.20
2014,05,26,06,27,10.20
2014,05,26,06,28,10.20
2014,05,26,06,29,10.30
2014,05,26,06,30,10.30
2014,05,26,06,31,10.30
2014,05,26,06,32,10.30
2014,05,26,06,33,10.30
2014,05,26,06,34,10.30
2014,05,26,06,35,10.30
2014,05,26,06,36,10.30
2014,05,26,06,37,10.30
2014,05,26,06,38,10.30
2014,05,26,06,39,10.30
2014,05,26,06,40,10.30
2014,05,26,06,41,10.30
2014,05,26,06,42,10.30
2014,05,26,06,43,10.30
2014,05,26,06,44,10.30
2014,05,26,06,45,10.40
2014,05,26,06,46,10.40
2014,05,26,06,47,10.40
2014,05,26,06,48,10.40
2014,05,26,06,49,10.40
2014,05,26,06,50,10.40
2014,05,26,06,51,10.40
2014,05,26,06,52,10.40
2014,05,26,06,53,10.40
2014,05,26,06,54,10.40
2014,05,26,06,55,10.40
2014,05,26,06,56,10.40
2014,05,26,06,57,10.40
2014,05,26,06,58,10.40
2014,05,26,06,59,10.40
2014,05,26,07,00,10.40
2014,05,26,07,01,10.50
2014,05,26,07,02,10.50
2014,05,26,07,03,10.50
2014,05,26,07,04,10.50
2014,05,26,07,05,10.50
2014,05,26,07,06,10.60
2014,05,26,07,07,10.60
2014,05,26,07,08,10.60
2014,05,26,07,09,10.60
2014,05,26,07,10,10.70
2014,05,26,07,11,10.70
2014,05,26,07,12,10.80
2014,05,26,07,13,10.80
2014,05,26,07,14,10.80
2014,05,26,07,15,10.80
2014,05,26,07,16,10.90
2014,05,26,07,17,10.90
2014,05,26,07,18,10.90
2014,05,26,07,19,10.90
2014,05,26,07,20,10.90
2014,05,26,07,21,10.90
2014,05,26,07,22,10.90
2014,05,26,07,23,10.90
2014,05,26,07,24,10.90
2014,05,26,07,25,11.00
2014,05,26,07,26,11.00
2014,05,26,07,27,11.00
2014,05,26,07,28,11.00
2014,05,26,07,29,11.10
2014,05,26,07,30,11.10
2014,05,26,07,31,11.10
2014,05,26,07,32,11.20
2014,05,26,07,33,11.30
2014,05,26,07,34,11.30
2014,05,26,07,35,11.30
2014,05,26,07,36,11.30
2014,05,26,07,37,11.30
2014,05,26,07,38,11.30
2014,05,26,07,39,11.20
2014,05,26,07,40,11.20
2014,05,26,07,41,11.20
2014,05,26,07,42,11.30
2014,05,26,07,43,11.20
2014,05,26,07,44,11.30
2014,05,26,07,45,11.20
2014,05,26,07,46,11.30
2014,05,26,07,47,11.30
2014,05,26,07,48,11.30
2014,05,26,07,49,11.30
2014,05,26,07,50,11.30
2014,05,26,07,51,11.30
2014,05,26,07,52,11.30
2014,05,26,07,53,11.30
2014,05,26,07,54,11.30
2014,05,26,07,55,11.30
2014,05,26,07,56,11.30
2014,05,26,07,57,11.30
2014,05,26,07,58,11.30
2014,05,26,07,59,11.30
2014,05,26,08,00,11.30
2014,05,26,08,01,11.30
2014,05,26,08,02,11.30
2014,05,26,08,03,11.40
2014,05,26,08,04,11.40
2014,05,26,08,05,11.40
2014,05,26,08,06,11.40
2014,05,26,08,07,11.50
2014,05,26,08,08,11.50
2014,05,26,08,09,11.60
2014,05,26,08,10,11.60
2014,05,26,08,11,11.60
2014,05,26,08,12,11.60
2014,05,26,08,13,11.60
2014,05,26,08,14,11.60
2014,05,26,08,15,11.60
2014,05,26,08,16,11.60
2014,05,26,08,17,11.70
2014,05,26,08,18,11.70
2014,05,26,08,19,11.70
2014,05,26,08,20,11.70
2014,05,26,08,21,11.70
2014,05,26,08,22,11.80
2014,05,26,08,23,11.80
2014,05,26,08,24,11.90
2014,05,26,08,25,11.90
2014,05,26,08,26,12.00
2014,05,26,08,27,12.00
2014,05,26,08,28,12.00
2014,05,26,08,29,12.00
2014,05,26,08,30,12.10
2014,05,26,08,31,12.10
2014,05,26,08,32,12.10
2014,05,26,08,33,12.10
2014,05,26,08,34,12.10
2014,05,26,08,35,12.10
2014,05,26,08,36,12.10
2014,05,26,08,37,12.10
2014,05,26,08,38,12.10
2014,05,26,08,39,12.10
2014,05,26,08,40,12.10
2014,05,26,08,41,12.10
2014,05,26,08,42,12.10
2014,05,26,08,43,12.10
2014,05,26,08,44,12.20
2014,05,26,08,45,12.20
2014,05,26,08,46,12.20
2014,05,26,08,47,12.30
2014,05,26,08,48,12.30
2014,05,26,08,49,12.40
2014,05,26,08,50,12.40
2014,05,26,08,51,12.40
2014,05,26,08,52,12.40
2014,05,26,08,53,12.40
2014,05,26,08,54,12.40
2014,05,26,08,55,12.40
2014,05,26,08,56,12.40
2014,05,26,08,57,12.40
2014,05,26,08,58,12.40
2014,05,26,08,59,12.40
2014,05,26,09,00,12.40
2014,05,26,09,01,12.50
2014,05,26,09,02,12.60
2014,05,26,09,03,12.60
2014,05,26,09,04,12.70
2014,05,26,09,05,12.70
2014,05,26,09,06,12.70
2014,05,26,09,07,12.70
2014,05,26,09,08,12.60
2014,05,26,09,09,12.60
2014,05,26,09,10,12.50
2014,05,26,09,11,12.50
2014,05,26,09,12,12.40
2014,05,26,09,13,12.40
2014,05,26,09,14,12.40
2014,05,26,09,15,12.40
2014,05,26,09,16,12.40
2014,05,26,09,17,12.50
2014,05,26,09,18,12.60
2014,05,26,09,19,12.70
2014,05,26,09,20,12.70
2014,05,26,09,21,12.70
2014,05,26,09,22,12.70
2014,05,26,09,23,12.70
2014,05,26,09,24,12.80
2014,05,26,09,25,12.80
2014,05,26,09,26,12.90
2014,05,26,09,27,13.00
2014,05,26,09,28,13.00
2014,05,26,09,29,13.00
2014,05,26,09,30,13.00
2014,05,26,09,31,12.90
2014,05,26,09,32,12.90
2014,05,26,09,33,12.90
2014,05,26,09,34,13.00
2014,05,26,09,35,13.00
2014,05,26,09,36,13.10
2014,05,26,09,37,13.20
2014,05,26,09,38,13.20
2014,05,26,09,39,13.30
2014,05,26,09,40,13.30
2014,05,26,09,41,13.30
2014,05,26,09,42,13.30
2014,05,26,09,43,13.30
2014,05,26,09,44,13.30
2014,05,26,09,45,13.30
2014,05,26,09,46,13.30
2014,05,26,09,47,13.30
2014,05,26,09,48,13.30
2014,05,26,09,49,13.30
2014,05,26,09,50,13.20
2014,05,26,09,51,13.20
2014,05,26,09,52,13.20
2014,05,26,09,53,13.20
2014,05,26,09,54,13.20
2014,05,26,09,55,13.30
2014,05,26,09,56,13.30
2014,05,26,09,57,13.30
2014,05,26,09,58,13.30
2014,05,26,09,59,13.40
2014,05,26,10,00,13.40
2014,05,26,10,01,13.40
2014,05,26,10,02,13.40
2014,05,26,10,03,13.30
2014,05,26,10,04,13.30
2014,05,26,10,05,13.30
2014,05,26,10,06,13.40
2014,05,26,10,07,13.50
2014,05,26,10,08,13.50
2014,05,26,10,09,13.60
2014,05,26,10,10,13.60
2014,05,26,10,11,13.60
2014,05,26,10,12,13.70
2014,05,26,10,13,13.70
2014,05,26,10,14,13.70
2014,05,26,10,15,13.80
2014,05,26,10,16,13.80
2014,05,26,10,17,13.90
2014,05,26,10,18,13.90
2014,05,26,10,19,13.90
2014,05,26,10,20,13.90
2014,05,26,10,21,13.90
2014,05,26,10,22,13.90
2014,05,26,10,23,13.90
2014,05,26,10,24,13.90
2014,05,26,10,25,13.80
2014,05,26,10,26,13.60
2014,05,26,10,27,13.40
2014,05,26,10,28,13.30
2014,05,26,10,29,13.20
2014,05,26,10,30,13.10
2014,05,26,10,31,13.00
2014,05,26,10,32,13.00
2014,05,26,10,33,13.00
2014,05,26,10,34,13.00
2014,05,26,10,35,13.10
2014,05,26,10,36,13.10
2014,05,26,10,37,13.10
2014,05,26,10,38,13.20
2014,05,26,10,39,13.20
2014,05,26,10,40,13.30
2014,05,26,10,41,13.30
2014,05,26,10,42,13.30
2014,05,26,10,43,13.30
2014,05,26,10,44,13.30
2014,05,26,10,45,13.30
2014,05,26,10,46,13.30
2014,05,26,10,47,13.30
2014,05,26,10,48,13.40
2014,05,26,10,49,13.50
2014,05,26,10,50,13.50
2014,05,26,10,51,13.60
2014,05,26,10,52,13.60
2014,05,26,10,53,13.60
2014,05,26,10,54,13.60
2014,05,26,10,55,13.60
2014,05,26,10,56,13.60
2014,05,26,10,57,13.70
2014,05,26,10,58,13.70
2014,05,26,10,59,13.70
2014,05,26,11,00,13.70
2014,05,26,11,01,13.70
2014,05,26,11,02,13.70
2014,05,26,11,03,13.60
2014,05,26,11,04,13.60
2014,05,26,11,05,13.60
2014,05,26,11,06,13.70
2014,05,26,11,07,13.80
2014,05,26,11,08,14.00
2014,05,26,11,09,14.10
2014,05,26,11,10,14.20
2014,05,26,11,11,14.30
2014,05,26,11,12,14.40
2014,05,26,11,13,14.50
2014,05,26,11,14,14.60
2014,05,26,11,15,14.60
2014,05,26,11,16,14.60
2014,05,26,11,17,14.60
2014,05,26,11,18,14.70
2014,05,26,11,19,14.70
2014,05,26,11,20,14.90
2014,05,26,11,21,15.00
2014,05,26,11,22,15.10
2014,05,26,11,23,15.20
2014,05,26,11,24,15.20
2014,05,26,11,25,15.30
2014,05,26,11,26,15.40
2014,05,26,11,27,15.40
2014,05,26,11,28,15.30
2014,05,26,11,29,15.30
2014,05,26,11,30,15.10
2014,05,26,11,31,15.00
2014,05,26,11,32,14.90
2014,05,26,11,33,14.70
2014,05,26,11,34,14.60
2014,05,26,11,35,14.50
2014,05,26,11,36,14.40
2014,05,26,11,37,14.40
2014,05,26,11,38,14.40
2014,05,26,11,39,14.30
2014,05,26,11,40,14.20
2014,05,26,11,41,14.20
2014,05,26,11,42,14.30
2014,05,26,11,43,14.50
2014,05,26,11,44,14.60
2014,05,26,11,45,14.50
2014,05,26,11,46,14.50
2014,05,26,11,47,14.50
2014,05,26,11,48,14.50
2014,05,26,11,49,14.50
2014,05,26,11,50,14.40
2014,05,26,11,51,14.40
2014,05,26,11,52,14.40
2014,05,26,11,53,14.40
2014,05,26,11,54,14.40
2014,05,26,11,55,14.50
2014,05,26,11,56,14.70
2014,05,26,11,57,14.80
2014,05,26,11,58,15.00
2014,05,26,11,59,15.10
2014,05,26,12,00,15.20
2014,05,26,12,01,15.30
2014,05,26,12,02,15.40
2014,05,26,12,03,15.40
2014,05,26,12,04,15.50
2014,05,26,12,05,15.60
2014,05,26,12,06,15.70
2014,05,26,12,07,15.70
2014,05,26,12,08,15.70
2014,05,26,12,09,15.70
2014,05,26,12,10,15.70
2014,05,26,12,11,15.80
2014,05,26,12,12,15.80
2014,05,26,12,13,15.80
2014,05,26,12,14,15.70
2014,05,26,12,15,15.60
2014,05,26,12,16,15.60
2014,05,26,12,17,15.60
2014,05,26,12,18,15.70
2014,05,26,12,19,15.80
2014,05,26,12,20,15.80
2014,05,26,12,21,15.80
2014,05,26,12,22,15.70
2014,05,26,12,23,15.60
2014,05,26,12,24,15.30
2014,05,26,12,25,15.10
2014,05,26,12,26,14.90
2014,05,26,12,27,14.70
2014,05,26,12,28,14.60
2014,05,26,12,29,14.50
2014,05,26,12,30,14.30
2014,05,26,12,31,14.20
2014,05,26,12,32,14.00
2014,05,26,12,33,14.00
2014,05,26,12,34,13.80
2014,05,26,12,35,13.70
2014,05,26,12,36,13.60
2014,05,26,12,37,13.40
2014,05,26,12,38,13.30
2014,05,26,12,39,13.20
2014,05,26,12,40,13.20
2014,05,26,12,41,13.10
2014,05,26,12,42,13.10
2014,05,26,12,43,13.00
2014,05,26,12,44,12.90
2014,05,26,12,45,12.80
2014,05,26,12,46,12.80
2014,05,26,12,47,12.80
2014,05,26,12,48,12.80
2014,05,26,12,49,12.90
2014,05,26,12,50,12.90
2014,05,26,12,51,13.00
2014,05,26,12,52,13.10
2014,05,26,12,53,13.10
2014,05,26,12,54,13.20
2014,05,26,12,55,13.30
2014,05,26,12,56,13.30
2014,05,26,12,57,13.30
2014,05,26,12,58,13.40
2014,05,26,12,59,13.50
2014,05,26,13,00,13.50
2014,05,26,13,01,13.60
2014,05,26,13,02,13.80
2014,05,26,13,03,13.90
2014,05,26,13,04,14.10
2014,05,26,13,05,14.20
2014,05,26,13,06,14.30
2014,05,26,13,07,14.50
2014,05,26,13,08,14.60
2014,05,26,13,09,14.80
2014,05,26,13,10,14.80
2014,05,26,13,11,14.90
2014,05,26,13,12,14.90
2014,05,26,13,13,15.00
2014,05,26,13,14,15.10
2014,05,26,13,15,15.20
2014,05,26,13,16,15.30
2014,05,26,13,17,15.30
2014,05,26,13,18,15.30
2014,05,26,13,19,15.20
2014,05,26,13,20,15.20
2014,05,26,13,21,15.20
2014,05,26,13,22,15.20
2014,05,26,13,23,15.10
2014,05,26,13,24,14.90
2014,05,26,13,25,14.80
2014,05,26,13,26,14.80
2014,05,26,13,27,14.80
2014,05,26,13,28,14.80
2014,05,26,13,29,14.80
2014,05,26,13,30,14.80
2014,05,26,13,31,14.80
2014,05,26,13,32,14.80
2014,05,26,13,33,14.70
2014,05,26,13,34,14.60
2014,05,26,13,35,14.50
2014,05,26,13,36,14.50
2014,05,26,13,37,14.60
2014,05,26,13,38,14.60
2014,05,26,13,39,14.60
2014,05,26,13,40,14.60
2014,05,26,13,41,14.60
2014,05,26,13,42,14.60
2014,05,26,13,43,14.50
2014,05,26,13,44,14.50
2014,05,26,13,45,14.50
2014,05,26,13,46,14.50
2014,05,26,13,47,14.60
2014,05,26,13,48,14.60
2014,05,26,13,49,14.60
2014,05,26,13,50,14.70
2014,05,26,13,51,14.70
2014,05,26,13,52,14.80
2014,05,26,13,53,15.00
2014,05,26,13,54,15.10
2014,05,26,13,55,15.20
2014,05,26,13,56,15.40
2014,05,26,13,57,15.40
2014,05,26,13,58,15.50
2014,05,26,13,59,15.60
2014,05,26,14,00,15.70
2014,05,26,14,01,15.80
2014,05,26,14,02,15.80
2014,05,26,14,03,15.70
2014,05,26,14,04,15.70
2014,05,26,14,05,15.60
2014,05,26,14,06,15.50
2014,05,26,14,07,15.50
2014,05,26,14,08,15.40
2014,05,26,14,09,15.30
2014,05,26,14,10,15.30
2014,05,26,14,11,15.40
2014,05,26,14,12,15.50
2014,05,26,14,13,15.60
2014,05,26,14,14,15.60
2014,05,26,14,15,15.70
2014,05,26,14,16,15.80
2014,05,26,14,17,15.90
2014,05,26,14,18,16.00
2014,05,26,14,19,16.00
2014,05,26,14,20,16.00
2014,05,26,14,21,16.00
2014,05,26,14,22,15.90
2014,05,26,14,23,15.90
2014,05,26,14,24,15.80
2014,05,26,14,25,15.80
2014,05,26,14,26,15.70
2014,05,26,14,27,15.60
2014,05,26,14,28,15.70
2014,05,26,14,29,15.70
2014,05,26,14,30,15.70
2014,05,26,14,31,15.70
2014,05,26,14,32,15.70
2014,05,26,14,33,15.70
2014,05,26,14,34,15.70
2014,05,26,14,35,15.70
2014,05,26,14,36,15.80
2014,05,26,14,37,15.90
2014,05,26,14,38,16.00
2014,05,26,14,39,16.00
2014,05,26,14,40,16.00
2014,05,26,14,41,15.90
2014,05,26,14,42,15.90
2014,05,26,14,43,15.90
2014,05,26,14,44,15.90
2014,05,26,14,45,16.00
2014,05,26,14,46,16.00
2014,05,26,14,47,16.10
2014,05,26,14,48,16.10
2014,05,26,14,49,16.20
2014,05,26,14,50,16.20
2014,05,26,14,51,16.30
2014,05,26,14,52,16.40
2014,05,26,14,53,16.50
2014,05,26,14,54,16.50
2014,05,26,14,55,16.40
2014,05,26,14,56,16.30
2014,05,26,14,57,16.10
2014,05,26,14,58,15.90
2014,05,26,14,59,15.80
2014,05,26,15,00,15.80
2014,05,26,15,01,15.90
2014,05,26,15,02,16.00
2014,05,26,15,03,16.10
2014,05,26,15,04,16.10
2014,05,26,15,05,16.30
2014,05,26,15,06,16.30
2014,05,26,15,07,16.40
2014,05,26,15,08,16.50
2014,05,26,15,09,16.40
2014,05,26,15,10,16.50
2014,05,26,15,11,16.60
2014,05,26,15,12,16.60
2014,05,26,15,13,16.60
2014,05,26,15,14,16.60
2014,05,26,15,15,16.60
2014,05,26,15,16,16.70
2014,05,26,15,17,16.90
2014,05,26,15,18,17.00
2014,05,26,15,19,17.10
2014,05,26,15,20,17.10
2014,05,26,15,21,17.10
2014,05,26,15,22,17.00
2014,05,26,15,23,16.90
2014,05,26,15,24,16.80
2014,05,26,15,25,16.80
2014,05,26,15,26,16.80
2014,05,26,15,27,16.80
2014,05,26,15,28,16.80
2014,05,26,15,29,16.90
2014,05,26,15,30,16.90
2014,05,26,15,31,17.00
2014,05,26,15,32,17.00
2014,05,26,15,33,16.90
2014,05,26,15,34,16.90
2014,05,26,15,35,16.80
2014,05,26,15,36,16.80
2014,05,26,15,37,16.70
2014,05,26,15,38,16.70
2014,05,26,15,39,16.60
2014,05,26,15,40,16.60
2014,05,26,15,41,16.50
2014,05,26,15,42,16.40
2014,05,26,15,43,16.30
2014,05,26,15,44,16.40
2014,05,26,15,45,16.50
2014,05,26,15,46,16.50
2014,05,26,15,47,16.50
2014,05,26,15,48,16.50
2014,05,26,15,49,16.40
2014,05,26,15,50,16.30
2014,05,26,15,51,16.30
2014,05,26,15,52,16.20
2014,05,26,15,53,16.20
2014,05,26,15,54,16.10
2014,05,26,15,55,16.00
2014,05,26,15,56,16.00
2014,05,26,15,57,16.00
2014,05,26,15,58,16.00
2014,05,26,15,59,15.90
2014,05,26,16,00,16.00
2014,05,26,16,01,16.00
2014,05,26,16,02,16.00
2014,05,26,16,03,16.00
2014,05,26,16,04,15.90
2014,05,26,16,05,15.90
2014,05,26,16,06,15.80
2014,05,26,16,07,15.80
2014,05,26,16,08,15.80
2014,05,26,16,09,15.80
2014,05,26,16,10,15.90
2014,05,26,16,11,16.00
2014,05,26,16,12,16.10
2014,05,26,16,13,16.20
2014,05,26,16,14,16.30
2014,05,26,16,15,16.20
2014,05,26,16,16,16.20
2014,05,26,16,17,16.20
2014,05,26,16,18,16.10
2014,05,26,16,19,16.00
2014,05,26,16,20,16.10
2014,05,26,16,21,16.10
2014,05,26,16,22,16.20
2014,05,26,16,23,16.20
2014,05,26,16,24,16.10
2014,05,26,16,25,16.00
2014,05,26,16,26,15.80
2014,05,26,16,27,15.70
2014,05,26,16,28,15.60
2014,05,26,16,29,15.50
2014,05,26,16,30,15.40
2014,05,26,16,31,15.30
2014,05,26,16,32,15.30
2014,05,26,16,33,15.40
2014,05,26,16,34,15.40
2014,05,26,16,35,15.40
2014,05,26,16,36,15.30
2014,05,26,16,37,15.30
2014,05,26,16,38,15.20
2014,05,26,16,39,15.20
2014,05,26,16,40,15.10
2014,05,26,16,41,15.10
2014,05,26,16,42,15.10
2014,05,26,16,43,15.10
2014,05,26,16,44,15.20
2014,05,26,16,45,15.20
2014,05,26,16,46,15.20
2014,05,26,16,47,15.30
2014,05,26,16,48,15.40
2014,05,26,16,49,15.50
2014,05,26,16,50,15.70
2014,05,26,16,51,15.80
2014,05,26,16,52,16.00
2014,05,26,16,53,16.10
2014,05,26,16,54,16.20
2014,05,26,16,55,16.30
2014,05,26,16,56,16.30
2014,05,26,16,57,16.40
2014,05,26,16,58,16.40
2014,05,26,16,59,16.40
2014,05,26,17,00,16.50
2014,05,26,17,01,16.60
2014,05,26,17,02,16.60
2014,05,26,17,03,16.70
2014,05,26,17,04,16.70
2014,05,26,17,05,16.70
2014,05,26,17,06,16.60
2014,05,26,17,07,16.60
2014,05,26,17,08,16.60
2014,05,26,17,09,16.60
2014,05,26,17,10,16.60
2014,05,26,17,11,16.60
2014,05,26,17,12,16.60
2014,05,26,17,13,16.60
2014,05,26,17,14,16.50
2014,05,26,17,15,16.50
2014,05,26,17,16,16.60
2014,05,26,17,17,16.70
2014,05,26,17,18,16.70
2014,05,26,17,19,16.70
2014,05,26,17,20,16.70
2014,05,26,17,21,16.70
2014,05,26,17,22,16.70
2014,05,26,17,23,16.60
2014,05,26,17,24,16.60